Location: Fort Wayne
(41.1310°N, 85.1290°W)
Time: 00:49:34
(UTC-04:00)

OPAL - Visible Passes

Search period start: 22 April 2018 00:00
Search period end: 02 May 2018 00:00
Orbit: 743 x 796 km, 100.2° (Epoch: 21 April)

Date Brightness Start Highest point End Pass type
(mag) Time Alt. Az. Time Alt. Az. Time Alt. Az.
22 Apr 9.1 21:38:07 15° E 21:40:24 19° ENE 21:43:58 10° NNE visible
22 Apr 7.9 23:18:24 54° SW 23:18:51 56° WSW 23:23:53 10° NNW visible
23 Apr 7.5 22:42:21 54° SE 22:43:21 68° ENE 22:48:26 10° N visible
24 Apr 9.8 00:22:38 14° W 00:22:39 14° W 00:25:24 10° WNW visible
24 Apr 8.4 22:06:18 26° E 22:08:02 32° ENE 22:12:31 10° N visible
24 Apr 8.8 23:46:35 31° WSW 23:46:50 31° W 23:51:22 10° NW visible
25 Apr 9.3 21:30:15 11° E 21:32:55 16° ENE 21:35:55 10° NNE visible
25 Apr 7.6 23:10:32 61° SSW 23:11:13 70° WSW 23:16:19 10° NNW visible
26 Apr 7.7 22:34:29 43° ESE 22:35:46 55° ENE 22:40:44 10° N visible
27 Apr 9.6 00:14:46 18° W 00:14:56 18° W 00:18:22 10° NW visible
27 Apr 8.7 21:58:26 20° E 22:00:30 26° ENE 22:04:41 10° N visible
27 Apr 8.4 23:38:43 38° WSW 23:39:10 39° W 23:43:56 10° NNW visible
28 Apr 9.5 21:23:10 10° E 21:25:26 13° ENE 21:27:41 10° NNE visible
28 Apr 7.4 23:02:40 61° S 23:03:36 86° WSW 23:08:42 10° NNW visible
29 Apr 8.0 22:26:37 34° ESE 22:28:12 44° ENE 22:33:00 10° N visible
30 Apr 9.3 00:06:54 22° WSW 00:07:13 22° W 00:11:09 10° NW visible
30 Apr 9.0 21:50:33 16° E 21:52:59 22° ENE 21:56:46 10° NNE visible
30 Apr 8.1 23:30:50 45° SW 23:31:31 48° WSW 23:36:25 10° NNW visible
01 May 9.6 21:17:06 10° ENE 21:17:58 10° NE 21:18:49 10° NE visible
01 May 7.4 22:54:48 53° SE 22:55:59 78° ENE 23:01:03 10° NNW visible
